Voltar ao catálogo

DMSP 5D-2 F13 DEB

AtivoSSO
NORAD 40477·DEBRIS·🇺🇸 United States

Lançado Mar 24, 1995 de Vandenberg Space Force Base

Loading…

Próximas Passagens (próximas 24 horas)

TLE

AtualizadoSource: Space-Track

Época: Sep 14, 2026, 13:56 UTC

1 40477U 95015BV  26257.58071251  .00003754  00000-0  10134-2 0  9993
2 40477  98.5644 303.7674 0018101 327.6664  32.3418 14.48352823600372

Acompanhe DMSP 5D-2 F13 DEB em tempo real com AllMySat

Download on the App Store